| time (UTC) | temp F | wind direction | speed MPH | gust MPH | rain 1hr in | rain 24hr in | rain mn in | humidity % | barometer mb |
| 20260903081542 | 74 | 209 | 0.0 | 1.0 | 0.00 | 0.00 | 0.00 | 71 | 1013.8 |
| 20260903080038 | 75 | 0 | 0.0 | 2.0 | 0.00 | 0.00 | 0.00 | 69 | 1013.9 |
| 20260903074542 | 75 | 0 | 0.0 | 0.0 | 0.00 | 0.00 | 0.00 | 70 | 1014.1 |
| 20260903073047 | 74 | 0 | 0.0 | 0.0 | 0.00 | 0.00 | 0.00 | 71 | 1014.1 |
| 20260903071540 | 75 | 0 | 0.0 | 0.0 | 0.00 | 0.00 | 0.00 | 70 | 1014.2 |
| 20260903070046 | 76 | 0 | 0.0 | 0.0 | 0.00 | 0.00 | 0.00 | 68 | 1014.1 |
| 20260903064544 | 76 | 0 | 0.0 | 0.0 | 0.00 | 0.00 | 0.00 | 69 | 1014.2 |
| 20260903063042 | 76 | 0 | 0.0 | 0.0 | 0.00 | 0.00 | 0.00 | 68 | 1014.4 |
| 20260903061556 | 76 | 0 | 0.0 | 0.0 | 0.00 | 0.00 | 0.00 | 68 | 1014.3 |
| 20260903060039 | 77 | 0 | 0.0 | 2.0 | 0.00 | 0.00 | 0.00 | 67 | 1014.1 |
| 20260903054542 | 79 | 186 | 1.0 | 2.0 | 0.00 | 0.00 | 0.00 | 60 | 1014.1 |
| 20260903053100 | 80 | 132 | 2.0 | 3.0 | 0.00 | 0.00 | 0.00 | 60 | 1014.2 |
| 20260903051544 | 80 | 148 | 1.0 | 2.0 | 0.00 | 0.00 | 0.00 | 59 | 1014.2 |
| 20260903050044 | 81 | 130 | 2.0 | 4.0 | 0.00 | 0.00 | 0.00 | 58 | 1014.1 |
| 20260903044539 | 82 | 131 | 3.0 | 7.0 | 0.00 | 0.00 | 0.00 | 55 | 1014.0 |
| 20260903043043 | 83 | 122 | 4.0 | 8.0 | 0.00 | 0.00 | 0.00 | 54 | 1014.2 |
| 20260903041543 | 82 | 107 | 4.0 | 6.0 | 0.00 | 0.00 | 0.00 | 55 | 1014.1 |
| 20260903040043 | 83 | 108 | 2.0 | 4.0 | 0.00 | 0.00 | 0.00 | 54 | 1014.1 |
| 20260903034537 | 83 | 94 | 3.0 | 5.0 | 0.00 | 0.00 | 0.00 | 53 | 1014.1 |
| 20260903033049 | 83 | 94 | 3.0 | 5.0 | 0.00 | 0.00 | 0.00 | 53 | 1014.0 |
| 20260903031549 | 83 | 113 | 3.0 | 5.0 | 0.00 | 0.00 | 0.00 | 54 | 1013.8 |
| 20260903030107 | 83 | 98 | 3.0 | 5.0 | 0.00 | 0.00 | 0.00 | 54 | 1013.6 |
| 20260903024538 | 84 | 99 | 2.0 | 3.0 | 0.00 | 0.00 | 0.00 | 52 | 1013.5 |
| 20260903023043 | 84 | 94 | 2.0 | 3.0 | 0.00 | 0.00 | 0.00 | 51 | 1013.3 |
| 20260903021543 | 85 | 94 | 2.0 | 4.0 | 0.00 | 0.00 | 0.00 | 49 | 1013.0 |
| 20260903020041 | 86 | 91 | 2.0 | 4.0 | 0.00 | 0.00 | 0.00 | 48 | 1012.8 |
| 20260903014541 | 87 | 94 | 3.0 | 5.0 | 0.00 | 0.00 | 0.00 | 46 | 1012.7 |
| 20260903013046 | 88 | 90 | 3.0 | 5.0 | 0.00 | 0.00 | 0.00 | 44 | 1012.4 |
| 20260903011557 | 90 | 96 | 3.0 | 5.0 | 0.00 | 0.00 | 0.00 | 41 | 1012.2 |
| 20260903010042 | 91 | 97 | 2.0 | 5.0 | 0.00 | 0.00 | 0.00 | 39 | 1012.2 |
| 20260903004544 | 94 | 82 | 2.0 | 5.0 | 0.00 | 0.00 | 0.00 | 36 | 1012.2 |
| 20260903003040 | 96 | 80 | 2.0 | 5.0 | 0.00 | 0.00 | 0.00 | 33 | 1012.1 |
| 20260903001542 | 99 | 81 | 2.0 | 5.0 | 0.00 | 0.00 | 0.00 | 31 | 1012.2 |
| 20260903000043 | 100 | 86 | 3.0 | 5.0 | 0.00 | 0.00 | 0.00 | 29 | 1012.2 |
| 20260902234542 | 101 | 84 | 3.0 | 6.0 | 0.00 | 0.00 | 0.00 | 29 | 1012.3 |
| 20260902233037 | 102 | 101 | 1.0 | 6.0 | 0.00 | 0.00 | 0.00 | 27 | 1012.4 |
| 20260902231551 | 102 | 91 | 4.0 | 6.0 | 0.00 | 0.00 | 0.00 | 27 | 1012.3 |
| 20260902230039 | 101 | 122 | 2.0 | 8.0 | 0.00 | 0.00 | 0.00 | 29 | 1012.4 |
| 20260902224553 | 102 | 67 | 5.0 | 9.0 | 0.00 | 0.00 | 0.00 | 28 | 1012.4 |
| 20260902223049 | 101 | 115 | 5.0 | 11.0 | 0.00 | 0.00 | 0.00 | 28 | 1012.5 |
| 20260902221557 | 101 | 0 | 0.0 | 7.0 | 0.00 | 0.00 | 0.00 | 29 | 1012.5 |
| 20260902220056 | 100 | 122 | 4.0 | 9.0 | 0.00 | 0.00 | 0.00 | 30 | 1012.6 |
| 20260902214543 | 102 | 70 | 2.0 | 8.0 | 0.00 | 0.00 | 0.00 | 28 | 1012.5 |
| 20260902213041 | 102 | 243 | 4.0 | 7.0 | 0.00 | 0.00 | 0.00 | 28 | 1012.8 |
| 20260902211539 | 100 | 146 | 4.0 | 8.0 | 0.00 | 0.00 | 0.00 | 30 | 1013.0 |
| 20260902210047 | 99 | 234 | 2.0 | 8.0 | 0.00 | 0.00 | 0.00 | 29 | 1013.1 |
| 20260902204547 | 100 | 153 | 2.0 | 11.0 | 0.00 | 0.00 | 0.00 | 30 | 1013.4 |
| 20260902203043 | 98 | 236 | 3.0 | 8.0 | 0.00 | 0.00 | 0.00 | 30 | 1013.6 |
| 20260902201550 | 98 | 163 | 3.0 | 8.0 | 0.00 | 0.00 | 0.00 | 32 | 1013.9 |
| 20260902200044 | 98 | 38 | 3.0 | 12.0 | 0.00 | 0.00 | 0.00 | 32 | 1014.0 |
| 20260902194543 | 98 | 116 | 6.0 | 11.0 | 0.00 | 0.00 | 0.00 | 31 | 1014.3 |
| 20260902193045 | 98 | 167 | 5.0 | 11.0 | 0.00 | 0.00 | 0.00 | 33 | 1014.6 |
| 20260902191538 | 97 | 0 | 0.0 | 6.0 | 0.00 | 0.00 | 0.00 | 33 | 1014.8 |
| 20260902190043 | 96 | 355 | 3.0 | 8.0 | 0.00 | 0.00 | 0.00 | 34 | 1015.0 |
| 20260902184546 | 96 | 50 | 3.0 | 8.0 | 0.00 | 0.00 | 0.00 | 35 | 1015.2 |
| 20260902183042 | 97 | 35 | 2.0 | 6.0 | 0.00 | 0.00 | 0.00 | 35 | 1015.5 |
| 20260902181544 | 96 | 197 | 3.0 | 10.0 | 0.00 | 0.00 | 0.00 | 35 | 1015.7 |
| 20260902180039 | 95 | 57 | 3.0 | 8.0 | 0.00 | 0.00 | 0.00 | 37 | 1016.0 |
| 20260902174539 | 94 | 140 | 1.0 | 7.0 | 0.00 | 0.00 | 0.00 | 38 | 1016.2 |
| 20260902173043 | 94 | 310 | 2.0 | 7.0 | 0.00 | 0.00 | 0.00 | 39 | 1016.3 |
| 20260902171552 | 93 | 283 | 2.0 | 6.0 | 0.00 | 0.00 | 0.00 | 41 | 1016.5 |
| 20260902170042 | 93 | 115 | 4.0 | 8.0 | 0.00 | 0.00 | 0.00 | 41 | 1016.6 |
| 20260902164539 | 93 | 203 | 3.0 | 9.0 | 0.00 | 0.00 | 0.00 | 43 | 1016.7 |
| 20260902163051 | 91 | 181 | 4.0 | 9.0 | 0.00 | 0.00 | 0.00 | 44 | 1017.1 |
| 20260902161543 | 90 | 224 | 5.0 | 9.0 | 0.00 | 0.00 | 0.00 | 46 | 1017.1 |
| 20260902160040 | 90 | 136 | 3.0 | 9.0 | 0.00 | 0.00 | 0.00 | 49 | 1017.2 |
| 20260902154542 | 89 | 224 | 4.0 | 8.0 | 0.00 | 0.00 | 0.00 | 51 | 1017.3 |
| 20260902153051 | 88 | 225 | 4.0 | 11.0 | 0.00 | 0.00 | 0.00 | 54 | 1017.3 |
| 20260902151540 | 87 | 225 | 5.0 | 11.0 | 0.00 | 0.00 | 0.00 | 55 | 1017.4 |
| 20260902150042 | 86 | 203 | 5.0 | 11.0 | 0.00 | 0.00 | 0.00 | 56 | 1017.3 |
| 20260902144540 | 86 | 179 | 4.0 | 9.0 | 0.00 | 0.00 | 0.00 | 59 | 1017.3 |
| 20260902143038 | 84 | 196 | 4.0 | 9.0 | 0.00 | 0.00 | 0.00 | 63 | 1017.2 |
| 20260902141542 | 83 | 204 | 4.0 | 10.0 | 0.00 | 0.00 | 0.00 | 66 | 1017.1 |
| 20260902140042 | 81 | 220 | 2.0 | 5.0 | 0.00 | 0.00 | 0.00 | 68 | 1016.9 |
| 20260902134550 | 80 | 271 | 0.0 | 2.0 | 0.00 | 0.00 | 0.00 | 70 | 1017.0 |
| 20260902133042 | 80 | 285 | 0.0 | 1.0 | 0.00 | 0.00 | 0.00 | 68 | 1017.2 |
| 20260902131542 | 79 | 200 | 0.0 | 1.0 | 0.00 | 0.00 | 0.00 | 71 | 1016.9 |
| 20260902130043 | 76 | 243 | 0.0 | 1.0 | 0.00 | 0.00 | 0.00 | 73 | 1016.8 |
| 20260902124542 | 74 | 0 | 0.0 | 1.0 | 0.00 | 0.00 | 0.00 | 77 | 1016.5 |
| 20260902123050 | 71 | 0 | 0.0 | 0.0 | 0.00 | 0.00 | 0.00 | 80 | 1016.5 |
| 20260902121537 | 72 | 0 | 0.0 | 0.0 | 0.00 | 0.00 | 0.00 | 78 | 1016.3 |
| 20260902120043 | 73 | 0 | 0.0 | 3.0 | 0.00 | 0.00 | 0.00 | 77 | 1016.4 |
| 20260902114544 | 73 | 225 | 0.0 | 1.0 | 0.00 | 0.00 | 0.00 | 76 | 1016.4 |
| 20260902113040 | 74 | 0 | 0.0 | 3.0 | 0.00 | 0.00 | 0.00 | 74 | 1016.3 |
| 20260902111540 | 74 | 153 | 3.0 | 7.0 | 0.00 | 0.00 | 0.00 | 73 | 1016.2 |
| 20260902110042 | 73 | 186 | 2.0 | 4.0 | 0.00 | 0.00 | 0.00 | 75 | 1016.2 |
| 20260902104540 | 73 | 0 | 0.0 | 2.0 | 0.00 | 0.00 | 0.00 | 76 | 1016.2 |
| 20260902103040 | 73 | 0 | 0.0 | 2.0 | 0.00 | 0.00 | 0.00 | 76 | 1016.3 |
| 20260902101541 | 73 | 0 | 1.0 | 4.0 | 0.00 | 0.00 | 0.00 | 77 | 1016.3 |
| 20260902100041 | 72 | 0 | 0.0 | 0.0 | 0.00 | 0.00 | 0.00 | 80 | 1016.3 |
| 20260902094542 | 72 | 0 | 0.0 | 1.0 | 0.00 | 0.00 | 0.00 | 79 | 1016.4 |
| 20260902093042 | 74 | 0 | 0.0 | 3.0 | 0.00 | 0.00 | 0.00 | 75 | 1016.4 |
| 20260902091541 | 75 | 141 | 3.0 | 4.0 | 0.00 | 0.00 | 0.00 | 75 | 1016.4 |
| 20260902090041 | 74 | 199 | 3.0 | 6.0 | 0.00 | 0.00 | 0.00 | 75 | 1016.2 |
| 20260902084536 | 74 | 140 | 3.0 | 5.0 | 0.00 | 0.00 | 0.00 | 76 | 1016.3 |
| 20260902083035 | 74 | 115 | 3.0 | 4.0 | 0.00 | 0.00 | 0.00 | 75 | 1016.4 |